STARLINK-36130

Last updated on Fri Dec 19 2025 00:02:08 GMT+0000 (Coordinated Universal Time)

1 66931U 25286G 25352.58336806 -.01288551 00000+0 -68161-2 0 9999 2 66931 53.1562 21.0528 0000971 66.9503 48.9816 15.82648858 2938
UTC large
Height (km)
Speed (km/s)
/
Latitude / Longitude
Inclination (degrees)
Orbital Period (minutes)
Azimuth
Elevation
Range (km)
Doppler Factor

Next 0 passes for location: London (51.5072 / 0.1276)

Sorry there are no passes over London.